Tracking 25963 objects as of 12-Aug-2022
HD Live streaming from Space Station
objects crossing your sky now

SL-16 R/B

Track SL-16 R/B now!
10-day predictions
SL-16 R/B is classified as:


NORAD ID: 25400
Int'l Code: 1998-043G
Perigee: 807.1 km
Apogee: 820.6 km
Inclination: 98.7 °
Period: 101.0 minutes
Semi major axis: 7184 km
RCS: 12.0301 m2 (large)
Launch date: July 10, 1998
Source: Commonwealth of Independent States (former USSR) (CIS)
Launch site: TYURATAM MISSILE AND SPACE COMPLEX (TTMTR)

Note: This is a ROCKET BODY
aabbcc
Your satellite tracking list
Your tracking list is empty




NASA's NSSDC Master Catalog

Two Line Element Set (TLE):
1 25400U 98043G   22224.43792890  .00000005  00000-0  20710-4 0  9998
2 25400  98.6731 159.9521 0009415 200.1916 159.8893 14.25523037252999
Source of the keplerian elements: AFSPC